Time,TemperatureF,DewpointF,PressureIn,WindDirection,WindDirectionDegrees,WindSpeedMPH,WindSpeedGustMPH,Humidity,HourlyPrecipIn,Conditions,Clouds,dailyrainin,SoftwareType,DateUTC
2013-03-28 00:02:00,35.7,26.5,28.82,SE,135,6.7,6.7,69,0.00,,,0.00,WUHU216HW,2013-03-28 05:02:00,
2013-03-28 00:07:00,35.6,26.7,28.82,SE,135,7.1,7.1,70,0.00,,,0.00,WUHU216HW,2013-03-28 05:07:00,
2013-03-28 00:12:00,35.4,26.2,28.83,SE,135,5.5,7.1,70,0.00,,,0.00,WUHU216HW,2013-03-28 05:12:00,
2013-03-28 00:18:00,35.4,26.6,28.83,SE,135,4.2,5.5,70,0.00,,,0.00,WUHU216HW,2013-03-28 05:18:00,
2013-03-28 00:23:00,35.4,26.6,28.83,SE,135,5.8,5.8,70,0.00,,,0.00,WUHU216HW,2013-03-28 05:23:00,
2013-03-28 00:28:00,35.2,26.4,28.83,SE,135,0.0,5.8,70,0.00,,,0.00,WUHU216HW,2013-03-28 05:28:00,
2013-03-28 00:33:00,35.2,26.4,28.83,SE,135,5.5,5.5,70,0.00,,,0.00,WUHU216HW,2013-03-28 05:33:00,
2013-03-28 00:38:00,35.2,26.7,28.83,SE,135,0.0,5.5,71,0.00,,,0.00,WUHU216HW,2013-03-28 05:38:00,
2013-03-28 00:43:00,34.8,26.3,28.83,SE,135,2.0,6.9,71,0.00,,,0.00,WUHU216HW,2013-03-28 05:43:00,
2013-03-28 00:48:00,34.8,26.3,28.83,SE,135,0.0,6.9,71,0.00,,,0.00,WUHU216HW,2013-03-28 05:48:00,
2013-03-28 00:53:00,34.7,26.2,28.83,SE,135,0.0,6.4,71,0.00,,,0.00,WUHU216HW,2013-03-28 05:53:00,
2013-03-28 00:58:00,34.3,25.8,28.83,ESE,113,4.9,6.4,71,0.00,,,0.00,WUHU216HW,2013-03-28 05:58:00,
2013-03-28 01:03:00,34.3,26.1,28.83,SE,135,4.0,6.4,72,0.00,,,0.00,WUHU216HW,2013-03-28 06:03:00,
2013-03-28 01:08:00,34.3,26.1,28.83,SE,135,4.0,4.0,72,0.00,,,0.00,WUHU216HW,2013-03-28 06:08:00,
2013-03-28 01:13:00,33.9,25.8,28.83,SE,135,7.3,7.3,72,0.00,,,0.00,WUHU216HW,2013-03-28 06:13:00,
2013-03-28 01:19:00,33.8,25.6,28.83,SE,135,3.8,7.3,72,0.00,,,0.00,WUHU216HW,2013-03-28 06:19:00,
2013-03-28 01:24:00,33.6,25.4,28.83,ESE,113,4.9,5.5,73,0.00,,,0.00,WUHU216HW,2013-03-28 06:24:00,
2013-03-28 01:29:00,33.6,25.7,28.83,SE,135,4.0,5.5,73,0.00,,,0.00,WUHU216HW,2013-03-28 06:29:00,
2013-03-28 01:34:00,33.6,25.7,28.82,SE,135,6.4,6.4,73,0.00,,,0.00,WUHU216HW,2013-03-28 06:34:00,
2013-03-28 01:39:00,33.6,25.7,28.82,SE,135,4.9,6.7,73,0.00,,,0.00,WUHU216HW,2013-03-28 06:39:00,
2013-03-28 01:44:00,33.4,25.6,28.82,SE,135,4.9,6.7,73,0.00,,,0.00,WUHU216HW,2013-03-28 06:44:00,
2013-03-28 01:49:00,33.2,25.4,28.82,SE,135,4.9,4.9,73,0.00,,,0.00,WUHU216HW,2013-03-28 06:49:00,
2013-03-28 01:54:00,33.0,25.3,28.82,SE,135,0.0,6.0,73,0.00,,,0.00,WUHU216HW,2013-03-28 06:54:00,
2013-03-28 01:59:00,33.0,25.6,28.82,SE,135,3.1,6.0,74,0.00,,,0.00,WUHU216HW,2013-03-28 06:59:00,
2013-03-28 02:04:00,32.9,25.4,28.82,SE,135,4.9,4.9,74,0.00,,,0.00,WUHU216HW,2013-03-28 07:04:00,
2013-03-28 02:09:00,32.9,25.4,28.82,SE,135,5.1,5.1,74,0.00,,,0.00,WUHU216HW,2013-03-28 07:09:00,
2013-03-28 02:14:00,32.7,25.3,28.82,SE,135,3.3,5.1,74,0.00,,,0.00,WUHU216HW,2013-03-28 07:14:00,
2013-03-28 02:19:00,32.7,25.3,28.82,SE,135,4.9,6.9,74,0.00,,,0.00,WUHU216HW,2013-03-28 07:19:00,
2013-03-28 02:24:00,32.7,25.6,28.82,SE,135,5.1,6.9,75,0.00,,,0.00,WUHU216HW,2013-03-28 07:24:00,
2013-03-28 02:29:00,32.7,25.6,28.82,SE,135,0.0,6.2,75,0.00,,,0.00,WUHU216HW,2013-03-28 07:29:00,
2013-03-28 02:34:00,32.7,25.6,28.82,SE,135,0.0,1.3,75,0.00,,,0.00,WUHU216HW,2013-03-28 07:34:00,
2013-03-28 02:39:00,32.5,25.4,28.82,SE,135,5.1,5.1,75,0.00,,,0.00,WUHU216HW,2013-03-28 07:39:00,
2013-03-28 02:44:00,32.3,25.3,28.82,SE,135,4.0,7.6,75,0.00,,,0.00,WUHU216HW,2013-03-28 07:44:00,
2013-03-28 02:49:00,32.3,25.3,28.82,SE,135,4.4,7.6,75,0.00,,,0.00,WUHU216HW,2013-03-28 07:49:00,
2013-03-28 02:55:00,32.3,25.3,28.82,SE,135,0.0,4.4,75,0.00,,,0.00,WUHU216HW,2013-03-28 07:55:00,
2013-03-28 03:00:00,32.3,25.3,28.81,SE,135,0.0,4.9,75,0.00,,,0.00,WUHU216HW,2013-03-28 08:00:00,
2013-03-28 03:05:00,32.3,25.3,28.81,SE,135,3.1,5.8,75,0.00,,,0.00,WUHU216HW,2013-03-28 08:05:00,
2013-03-28 03:10:00,32.1,25.4,28.81,SE,135,5.3,5.8,76,0.00,,,0.00,WUHU216HW,2013-03-28 08:10:00,
2013-03-28 03:15:00,32.1,25.4,28.81,SE,135,0.0,5.3,76,0.00,,,0.00,WUHU216HW,2013-03-28 08:15:00,
2013-03-28 03:20:00,32.1,25.4,28.81,ESE,113,0.0,2.2,76,0.00,,,0.00,WUHU216HW,2013-03-28 08:20:00,
2013-03-28 03:25:00,31.8,24.8,28.81,ESE,113,0.0,1.7,75,0.00,,,0.00,WUHU216HW,2013-03-28 08:25:00,
2013-03-28 03:30:00,31.8,24.8,28.81,ESE,113,0.0,0.0,75,0.00,,,0.00,WUHU216HW,2013-03-28 08:30:00,
2013-03-28 03:35:00,31.6,24.6,28.81,SE,135,0.0,4.6,75,0.00,,,0.00,WUHU216HW,2013-03-28 08:35:00,
2013-03-28 03:40:00,31.6,24.6,28.81,SE,135,0.0,4.6,75,0.00,,,0.00,WUHU216HW,2013-03-28 08:40:00,
2013-03-28 03:45:00,31.4,24.7,28.81,SE,135,0.0,2.6,76,0.00,,,0.00,WUHU216HW,2013-03-28 08:45:00,
2013-03-28 03:50:00,31.4,24.7,28.81,SE,135,5.5,5.5,76,0.00,,,0.00,WUHU216HW,2013-03-28 08:50:00,
2013-03-28 03:56:00,31.4,24.7,28.81,ESE,113,4.9,5.5,76,0.00,,,0.00,WUHU216HW,2013-03-28 08:56:00,
2013-03-28 04:01:00,31.6,24.9,28.81,SE,135,0.0,4.9,76,0.00,,,0.00,WUHU216HW,2013-03-28 09:01:00,
2013-03-28 04:06:00,31.6,25.2,28.81,SE,135,7.1,7.1,77,0.00,,,0.00,WUHU216HW,2013-03-28 09:06:00,
2013-03-28 04:11:00,31.4,25.0,28.80,SE,135,0.0,7.1,77,0.00,,,0.00,WUHU216HW,2013-03-28 09:11:00,
2013-03-28 04:16:00,31.2,24.9,28.80,SE,135,7.1,7.1,77,0.00,,,0.00,WUHU216HW,2013-03-28 09:16:00,
2013-03-28 04:21:00,31.2,24.9,28.80,SE,135,3.1,7.1,77,0.00,,,0.00,WUHU216HW,2013-03-28 09:21:00,
2013-03-28 04:26:00,31.2,24.9,28.80,SE,135,0.0,4.9,77,0.00,,,0.00,WUHU216HW,2013-03-28 09:26:00,
2013-03-28 04:31:00,31.1,24.7,28.80,SE,135,5.1,5.1,77,0.00,,,0.00,WUHU216HW,2013-03-28 09:31:00,
2013-03-28 04:36:00,31.1,24.7,28.80,SE,135,0.0,5.8,77,0.00,,,0.00,WUHU216HW,2013-03-28 09:36:00,
2013-03-28 04:42:00,30.9,24.5,28.80,SE,135,3.8,5.8,77,0.00,,,0.00,WUHU216HW,2013-03-28 09:42:00,
2013-03-28 04:47:00,30.9,24.8,28.80,ESE,113,4.4,4.4,78,0.00,,,0.00,WUHU216HW,2013-03-28 09:47:00,
2013-03-28 04:52:00,30.7,24.6,28.80,SE,135,6.0,7.3,78,0.00,,,0.00,WUHU216HW,2013-03-28 09:52:00,
2013-03-28 04:57:00,30.7,24.6,28.80,SE,135,0.0,7.3,78,0.00,,,0.00,WUHU216HW,2013-03-28 09:57:00,
2013-03-28 05:02:00,30.7,24.5,28.80,SE,135,1.7,6.4,78,0.00,,,0.00,WUHU216HW,2013-03-28 10:02:00,
2013-03-28 05:07:00,30.5,24.5,28.80,ESE,113,4.2,4.2,78,0.00,,,0.00,WUHU216HW,2013-03-28 10:07:00,
2013-03-28 05:12:00,30.7,24.6,28.80,ESE,113,0.0,5.1,78,0.00,,,0.00,WUHU216HW,2013-03-28 10:12:00,
2013-03-28 05:17:00,30.5,24.5,28.80,SE,135,0.0,5.1,78,0.00,,,0.00,WUHU216HW,2013-03-28 10:17:00,
2013-03-28 05:22:00,30.3,24.3,28.80,ESE,113,0.0,2.4,78,0.00,,,0.00,WUHU216HW,2013-03-28 10:22:00,
2013-03-28 05:27:00,30.0,23.9,28.80,ESE,113,0.0,5.5,78,0.00,,,0.00,WUHU216HW,2013-03-28 10:27:00,
2013-03-28 05:32:00,30.0,23.9,28.80,SE,135,0.0,5.5,78,0.00,,,0.00,WUHU216HW,2013-03-28 10:32:00,
2013-03-28 05:38:00,30.0,23.9,28.80,SE,135,0.0,0.0,78,0.00,,,0.00,WUHU216HW,2013-03-28 10:38:00,
2013-03-28 05:43:00,29.8,24.1,28.80,SE,135,0.0,4.9,79,0.00,,,0.00,WUHU216HW,2013-03-28 10:43:00,
2013-03-28 05:48:00,29.8,24.1,28.80,SE,135,0.0,4.9,79,0.00,,,0.00,WUHU216HW,2013-03-28 10:48:00,
2013-03-28 05:53:00,29.6,23.9,28.81,SE,135,0.0,0.0,79,0.00,,,0.00,WUHU216HW,2013-03-28 10:53:00,
2013-03-28 05:58:00,29.4,23.7,28.81,SE,135,0.0,0.0,79,0.00,,,0.00,WUHU216HW,2013-03-28 10:58:00,
2013-03-28 06:03:00,29.4,23.7,28.81,SE,135,0.0,0.0,79,0.00,,,0.00,WUHU216HW,2013-03-28 11:03:00,
2013-03-28 06:08:00,29.4,23.7,28.81,SE,135,0.0,0.0,79,0.00,,,0.00,WUHU216HW,2013-03-28 11:08:00,
2013-03-28 06:13:00,29.4,23.7,28.81,SE,135,1.1,1.5,79,0.00,,,0.00,WUHU216HW,2013-03-28 11:13:00,
2013-03-28 06:18:00,29.4,23.7,28.81,SE,135,0.0,3.1,79,0.00,,,0.00,WUHU216HW,2013-03-28 11:18:00,
2013-03-28 06:23:00,29.4,23.7,28.81,SE,135,5.8,5.8,79,0.00,,,0.00,WUHU216HW,2013-03-28 11:23:00,
2013-03-28 06:28:00,29.6,23.9,28.81,SE,135,2.0,5.8,79,0.00,,,0.00,WUHU216HW,2013-03-28 11:28:00,
2013-03-28 06:33:00,29.6,23.9,28.81,SE,135,1.5,4.9,79,0.00,,,0.00,WUHU216HW,2013-03-28 11:33:00,
2013-03-28 06:38:00,29.4,23.7,28.81,SE,135,4.2,5.1,79,0.00,,,0.00,WUHU216HW,2013-03-28 11:38:00,
2013-03-28 06:44:00,29.4,24.0,28.81,SE,135,2.6,5.1,80,0.00,,,0.00,WUHU216HW,2013-03-28 11:44:00,
2013-03-28 06:49:00,29.4,24.0,28.81,SE,135,3.8,4.2,80,0.00,,,0.00,WUHU216HW,2013-03-28 11:49:00,
2013-03-28 06:54:00,29.3,23.9,28.81,SE,135,0.0,3.8,80,0.00,,,0.00,WUHU216HW,2013-03-28 11:54:00,
2013-03-28 06:59:00,29.1,23.7,28.81,SE,135,0.0,0.0,80,0.00,,,0.00,WUHU216HW,2013-03-28 11:59:00,
2013-03-28 07:04:00,29.1,23.7,28.81,SE,135,0.0,0.0,80,0.00,,,0.00,WUHU216HW,2013-03-28 12:04:00,
2013-03-28 07:09:00,28.9,23.5,28.81,SE,135,0.0,0.0,80,0.00,,,0.00,WUHU216HW,2013-03-28 12:09:00,
2013-03-28 07:14:00,28.9,23.5,28.81,SE,135,0.0,0.0,80,0.00,,,0.00,WUHU216HW,2013-03-28 12:14:00,
2013-03-28 07:19:00,28.7,23.3,28.81,SE,135,0.0,0.0,80,0.00,,,0.00,WUHU216HW,2013-03-28 12:19:00,
2013-03-28 07:24:00,28.7,23.3,28.81,SE,135,0.0,0.0,80,0.00,,,0.00,WUHU216HW,2013-03-28 12:24:00,
2013-03-28 07:29:00,28.7,23.3,28.81,SE,135,0.0,0.0,80,0.00,,,0.00,WUHU216HW,2013-03-28 12:29:00,
2013-03-28 07:34:00,28.7,23.3,28.81,SE,135,0.0,0.0,80,0.00,,,0.00,WUHU216HW,2013-03-28 12:34:00,
2013-03-28 07:39:00,28.5,23.1,28.81,SE,135,0.0,0.4,80,0.00,,,0.00,WUHU216HW,2013-03-28 12:39:00,
2013-03-28 07:44:00,28.5,23.1,28.81,ESE,113,0.0,0.4,80,0.00,,,0.00,WUHU216HW,2013-03-28 12:44:00,
2013-03-28 07:49:00,28.5,23.1,28.81,ESE,113,0.0,0.0,80,0.00,,,0.00,WUHU216HW,2013-03-28 12:49:00,
2013-03-28 07:54:00,28.5,23.1,28.82,ESE,113,0.0,0.0,80,0.00,,,0.00,WUHU216HW,2013-03-28 12:54:00,
2013-03-28 08:00:00,28.7,23.3,28.81,ESE,113,0.0,0.0,80,0.00,,,0.00,WUHU216HW,2013-03-28 13:00:00,
2013-03-28 08:05:00,28.9,23.5,28.81,ESE,113,0.0,0.0,80,0.00,,,0.00,WUHU216HW,2013-03-28 13:05:00,
2013-03-28 08:10:00,29.1,23.7,28.82,SE,135,0.0,0.0,80,0.00,,,0.00,WUHU216HW,2013-03-28 13:10:00,
2013-03-28 08:15:00,29.4,24.0,28.82,SSE,158,0.0,0.0,80,0.00,,,0.00,WUHU216HW,2013-03-28 13:15:00,
2013-03-28 08:20:00,30.3,25.2,28.82,SSE,158,0.0,0.0,81,0.00,,,0.00,WUHU216HW,2013-03-28 13:20:00,
2013-03-28 08:25:00,30.7,25.6,28.82,ENE,68,0.0,0.0,81,0.00,,,0.00,WUHU216HW,2013-03-28 13:25:00,
2013-03-28 08:30:00,31.2,25.8,28.81,ESE,113,0.0,3.5,80,0.00,,,0.00,WUHU216HW,2013-03-28 13:30:00,
2013-03-28 08:35:00,31.8,26.4,28.81,ESE,113,0.0,3.5,80,0.00,,,0.00,WUHU216HW,2013-03-28 13:35:00,
2013-03-28 08:40:00,32.1,26.7,28.81,ESE,113,4.4,4.4,80,0.00,,,0.00,WUHU216HW,2013-03-28 13:40:00,
2013-03-28 08:45:00,32.9,27.0,28.82,SE,135,3.3,6.2,79,0.00,,,0.00,WUHU216HW,2013-03-28 13:45:00,
2013-03-28 08:50:00,33.4,27.5,28.82,ESE,113,0.0,6.2,79,0.00,,,0.00,WUHU216HW,2013-03-28 13:50:00,
2013-03-28 08:55:00,33.9,28.0,28.82,ESE,113,2.2,3.3,79,0.00,,,0.00,WUHU216HW,2013-03-28 13:55:00,
2013-03-28 09:00:00,34.3,28.1,28.82,ESE,113,4.9,4.9,78,0.00,,,0.00,WUHU216HW,2013-03-28 14:00:00,
2013-03-28 09:05:00,34.8,28.6,28.83,SE,135,4.0,6.2,78,0.00,,,0.00,WUHU216HW,2013-03-28 14:05:00,
2013-03-28 09:10:00,35.4,28.8,28.83,SE,135,2.2,6.2,77,0.00,,,0.00,WUHU216HW,2013-03-28 14:10:00,
2013-03-28 09:15:00,36.1,29.5,28.83,SE,135,5.3,7.3,77,0.00,,,0.00,WUHU216HW,2013-03-28 14:15:00,
2013-03-28 09:21:00,36.6,29.8,28.83,SE,135,0.0,7.3,76,0.00,,,0.00,WUHU216HW,2013-03-28 14:21:00,
2013-03-28 09:26:00,37.2,30.0,28.83,SE,135,0.0,6.7,75,0.00,,,0.00,WUHU216HW,2013-03-28 14:26:00,
2013-03-28 09:31:00,37.5,30.3,28.83,SE,135,0.0,6.7,75,0.00,,,0.00,WUHU216HW,2013-03-28 14:31:00,
2013-03-28 09:36:00,38.1,30.5,28.84,SSE,158,2.9,2.9,74,0.00,,,0.00,WUHU216HW,2013-03-28 14:36:00,
2013-03-28 09:41:00,38.8,31.3,28.84,SSE,158,1.7,4.2,74,0.00,,,0.00,WUHU216HW,2013-03-28 14:41:00,
2013-03-28 09:46:00,39.3,31.3,28.84,SE,135,2.0,4.4,73,0.00,,,0.00,WUHU216HW,2013-03-28 14:46:00,
2013-03-28 09:51:00,39.9,31.9,28.84,SE,135,0.0,4.4,73,0.00,,,0.00,WUHU216HW,2013-03-28 14:51:00,
2013-03-28 09:56:00,40.8,32.4,28.83,SE,135,7.6,7.6,72,0.00,,,0.00,WUHU216HW,2013-03-28 14:56:00,
2013-03-28 10:01:00,41.1,32.5,28.84,SE,135,5.8,7.6,70,0.00,,,0.00,WUHU216HW,2013-03-28 15:01:00,
2013-03-28 10:07:00,41.1,32.1,28.83,SE,135,0.0,7.6,70,0.00,,,0.00,WUHU216HW,2013-03-28 15:07:00,
2013-03-28 10:12:00,41.7,32.3,28.83,SSE,158,0.0,5.8,69,0.00,,,0.00,WUHU216HW,2013-03-28 15:12:00,
2013-03-28 10:17:00,42.2,32.8,28.83,SSE,158,3.8,3.8,69,0.00,,,0.00,WUHU216HW,2013-03-28 15:17:00,
2013-03-28 10:22:00,42.6,32.8,28.84,SSE,158,0.0,3.8,68,0.00,,,0.00,WUHU216HW,2013-03-28 15:22:00,
2013-03-28 10:27:00,43.3,33.4,28.84,SSE,158,6.0,6.0,68,0.00,,,0.00,WUHU216HW,2013-03-28 15:27:00,
2013-03-28 10:32:00,43.5,33.2,28.84,SSE,158,0.0,6.7,67,0.00,,,0.00,WUHU216HW,2013-03-28 15:32:00,
2013-03-28 10:37:00,43.8,33.2,28.84,SSE,158,0.0,6.7,66,0.00,,,0.00,WUHU216HW,2013-03-28 15:37:00,
2013-03-28 10:42:00,44.2,33.5,28.84,SSE,158,0.0,0.0,66,0.00,,,0.00,WUHU216HW,2013-03-28 15:42:00,
2013-03-28 10:47:00,44.7,33.6,28.84,ENE,68,0.0,1.5,65,0.00,,,0.00,WUHU216HW,2013-03-28 15:47:00,
2013-03-28 10:52:00,44.9,33.4,28.84,East,90,0.0,1.5,64,0.00,,,0.00,WUHU216HW,2013-03-28 15:52:00,
2013-03-28 10:57:00,44.9,33.4,28.84,ESE,113,0.0,0.0,64,0.00,,,0.00,WUHU216HW,2013-03-28 15:57:00,
2013-03-28 11:02:00,45.6,33.8,28.84,SE,135,4.6,4.6,64,0.00,,,0.00,WUHU216HW,2013-03-28 16:02:00,
2013-03-28 11:07:00,46.0,33.7,28.84,ENE,68,0.0,4.6,62,0.00,,,0.00,WUHU216HW,2013-03-28 16:07:00,
2013-03-28 11:12:00,46.0,33.7,28.84,East,90,0.0,4.6,62,0.00,,,0.00,WUHU216HW,2013-03-28 16:12:00,
2013-03-28 11:17:00,46.2,33.8,28.83,SE,135,1.5,1.5,62,0.00,,,0.00,WUHU216HW,2013-03-28 16:17:00,
2013-03-28 11:22:00,46.7,33.9,28.83,ENE,68,0.0,1.5,61,0.00,,,0.00,WUHU216HW,2013-03-28 16:22:00,
2013-03-28 11:28:00,47.1,33.9,28.83,ENE,68,0.0,1.5,60,0.00,,,0.00,WUHU216HW,2013-03-28 16:28:00,
2013-03-28 11:33:00,47.4,34.3,28.83,East,90,0.0,4.4,60,0.00,,,0.00,WUHU216HW,2013-03-28 16:33:00,
2013-03-28 11:38:00,48.0,34.4,28.83,ESE,113,0.0,4.4,59,0.00,,,0.00,WUHU216HW,2013-03-28 16:38:00,
2013-03-28 11:43:00,48.7,35.0,28.83,SE,135,1.5,4.4,59,0.00,,,0.00,WUHU216HW,2013-03-28 16:43:00,
2013-03-28 11:48:00,49.2,35.5,28.83,SE,135,0.0,4.4,59,0.00,,,0.00,WUHU216HW,2013-03-28 16:48:00,
2013-03-28 11:53:00,49.4,34.8,28.83,SE,135,6.0,6.0,57,0.00,,,0.00,WUHU216HW,2013-03-28 16:53:00,
2013-03-28 11:58:00,49.8,34.7,28.82,ESE,113,0.0,6.0,56,0.00,,,0.00,WUHU216HW,2013-03-28 16:58:00,
2013-03-28 12:03:00,50.1,34.5,28.83,SE,135,6.4,6.4,55,0.00,,,0.00,WUHU216HW,2013-03-28 17:03:00,
2013-03-28 12:08:00,50.5,34.9,28.83,ESE,113,6.2,6.4,55,0.00,,,0.00,WUHU216HW,2013-03-28 17:08:00,
2013-03-28 12:13:00,51.0,35.4,28.82,SE,135,2.6,6.2,55,0.00,,,0.00,WUHU216HW,2013-03-28 17:13:00,
2013-03-28 12:18:00,51.4,35.2,28.83,NE,45,0.0,3.8,54,0.00,,,0.00,WUHU216HW,2013-03-28 17:18:00,
2013-03-28 12:23:00,51.4,35.2,28.83,SE,135,4.6,4.6,54,0.00,,,0.00,WUHU216HW,2013-03-28 17:23:00,
2013-03-28 12:28:00,51.9,35.3,28.82,East,90,4.9,4.9,53,0.00,,,0.00,WUHU216HW,2013-03-28 17:28:00,
2013-03-28 12:33:00,52.1,35.4,28.82,SSE,158,4.2,4.9,53,0.00,,,0.00,WUHU216HW,2013-03-28 17:33:00,
2013-03-28 12:38:00,52.5,35.3,28.82,SE,135,0.0,6.9,52,0.00,,,0.00,WUHU216HW,2013-03-28 17:38:00,
2013-03-28 12:43:00,53.0,35.8,28.82,ESE,113,0.0,6.9,52,0.00,,,0.00,WUHU216HW,2013-03-28 17:43:00,
2013-03-28 12:48:00,53.4,36.2,28.81,NE,45,6.4,6.4,51,0.00,,,0.00,WUHU216HW,2013-03-28 17:48:00,
2013-03-28 12:54:00,54.3,36.5,28.81,SE,135,5.3,6.4,51,0.00,,,0.00,WUHU216HW,2013-03-28 17:54:00,
2013-03-28 12:59:00,54.6,35.8,28.81,SE,135,0.0,6.4,49,0.00,,,0.00,WUHU216HW,2013-03-28 17:59:00,
2013-03-28 13:04:00,54.6,35.8,28.81,SE,135,6.0,6.0,49,0.00,,,0.00,WUHU216HW,2013-03-28 18:04:00,
2013-03-28 13:09:00,54.8,35.4,28.81,ESE,113,0.0,6.0,48,0.00,,,0.00,WUHU216HW,2013-03-28 18:09:00,
2013-03-28 13:14:00,55.0,35.6,28.81,SE,135,0.0,6.0,48,0.00,,,0.00,WUHU216HW,2013-03-28 18:14:00,
2013-03-28 13:19:00,55.0,35.0,28.81,SE,135,5.3,5.3,47,0.00,,,0.00,WUHU216HW,2013-03-28 18:19:00,
2013-03-28 13:24:00,54.8,35.4,28.81,SE,135,0.0,5.3,48,0.00,,,0.00,WUHU216HW,2013-03-28 18:24:00,
2013-03-28 13:29:00,55.2,35.2,28.81,SE,135,5.5,5.5,47,0.00,,,0.00,WUHU216HW,2013-03-28 18:29:00,
2013-03-28 13:34:00,55.7,36.2,28.80,SSE,158,0.0,6.7,48,0.00,,,0.00,WUHU216HW,2013-03-28 18:34:00,
2013-03-28 13:39:00,56.3,36.2,28.80,NE,45,6.9,6.9,47,0.00,,,0.00,WUHU216HW,2013-03-28 18:39:00,
2013-03-28 13:45:00,56.4,35.8,28.80,ESE,113,7.6,7.6,46,0.00,,,0.00,WUHU216HW,2013-03-28 18:45:00,
2013-03-28 13:50:00,56.4,35.8,28.79,ESE,113,6.2,7.6,46,0.00,,,0.00,WUHU216HW,2013-03-28 18:50:00,
2013-03-28 13:55:00,56.8,36.1,28.79,SE,135,7.6,7.6,46,0.00,,,0.00,WUHU216HW,2013-03-28 18:55:00,
2013-03-28 14:00:00,57.7,37.0,28.79,South,180,0.0,7.6,46,0.00,,,0.00,WUHU216HW,2013-03-28 19:00:00,
2013-03-28 14:05:00,58.1,37.3,28.79,SSE,158,0.0,6.4,46,0.00,,,0.00,WUHU216HW,2013-03-28 19:05:00,
2013-03-28 14:10:00,58.6,37.8,28.79,SSE,158,0.0,9.1,46,0.00,,,0.00,WUHU216HW,2013-03-28 19:10:00,
2013-03-28 14:15:00,58.8,36.8,28.79,SSW,203,11.4,11.4,44,0.00,,,0.00,WUHU216HW,2013-03-28 19:15:00,
2013-03-28 14:20:00,58.8,37.4,28.79,South,180,11.4,11.4,45,0.00,,,0.00,WUHU216HW,2013-03-28 19:20:00,
2013-03-28 14:25:00,59.0,37.0,28.79,SSW,203,2.4,11.4,44,0.00,,,0.00,WUHU216HW,2013-03-28 19:25:00,
2013-03-28 14:30:00,59.1,36.5,28.79,South,180,0.0,11.4,43,0.00,,,0.00,WUHU216HW,2013-03-28 19:30:00,
2013-03-28 14:35:00,58.8,36.2,28.78,SSE,158,0.0,0.0,43,0.00,,,0.00,WUHU216HW,2013-03-28 19:35:00,
2013-03-28 14:40:00,58.8,36.6,28.78,SE,135,5.1,5.1,44,0.00,,,0.00,WUHU216HW,2013-03-28 19:40:00,
2013-03-28 14:45:00,58.8,36.8,28.78,SE,135,0.0,5.1,44,0.00,,,0.00,WUHU216HW,2013-03-28 19:45:00,
2013-03-28 14:50:00,58.8,36.2,28.77,NE,45,0.0,5.1,43,0.00,,,0.00,WUHU216HW,2013-03-28 19:50:00,
2013-03-28 14:56:00,58.2,35.7,28.78,ESE,113,0.0,4.6,43,0.00,,,0.00,WUHU216HW,2013-03-28 19:56:00,
2013-03-28 15:01:00,58.4,35.9,28.78,South,180,9.8,9.8,43,0.00,,,0.00,WUHU216HW,2013-03-28 20:01:00,
2013-03-28 15:06:00,58.8,36.2,28.77,SSE,158,7.6,9.8,43,0.00,,,0.00,WUHU216HW,2013-03-28 20:06:00,
2013-03-28 15:11:00,58.8,36.2,28.77,South,180,1.7,9.1,43,0.00,,,0.00,WUHU216HW,2013-03-28 20:11:00,
2013-03-28 15:17:00,59.1,36.5,28.76,South,180,6.7,9.1,43,0.00,,,0.00,WUHU216HW,2013-03-28 20:17:00,
2013-03-28 15:22:00,59.3,36.7,28.76,South,180,5.3,10.2,43,0.00,,,0.00,WUHU216HW,2013-03-28 20:22:00,
2013-03-28 15:27:00,59.3,36.7,28.76,South,180,0.0,10.2,43,0.00,,,0.00,WUHU216HW,2013-03-28 20:27:00,
2013-03-28 15:32:00,59.7,37.0,28.76,South,180,7.8,7.8,43,0.00,,,0.00,WUHU216HW,2013-03-28 20:32:00,
2013-03-28 15:37:00,59.9,36.8,28.76,South,180,0.0,7.8,42,0.00,,,0.00,WUHU216HW,2013-03-28 20:37:00,
2013-03-28 15:42:00,60.0,36.8,28.76,South,180,0.0,7.8,42,0.00,,,0.00,WUHU216HW,2013-03-28 20:42:00,
2013-03-28 15:47:00,59.9,36.6,28.76,South,180,0.0,0.0,42,0.00,,,0.00,WUHU216HW,2013-03-28 20:47:00,
2013-03-28 15:52:00,59.7,36.5,28.76,South,180,0.0,4.6,42,0.00,,,0.00,WUHU216HW,2013-03-28 20:52:00,
2013-03-28 15:57:00,59.9,36.6,28.76,South,180,0.0,4.6,42,0.00,,,0.00,WUHU216HW,2013-03-28 20:57:00,
2013-03-28 16:02:00,59.5,35.7,28.76,South,180,0.0,0.0,41,0.00,,,0.00,WUHU216HW,2013-03-28 21:02:00,
2013-03-28 16:07:00,59.5,36.3,28.76,South,180,0.0,0.0,42,0.00,,,0.00,WUHU216HW,2013-03-28 21:07:00,
2013-03-28 16:12:00,59.5,36.3,28.76,South,180,3.1,3.1,42,0.00,,,0.00,WUHU216HW,2013-03-28 21:12:00,
2013-03-28 16:17:00,58.8,35.1,28.75,SSE,158,0.0,3.1,41,0.00,,,0.00,WUHU216HW,2013-03-28 21:17:00,
2013-03-28 16:22:00,58.8,35.6,28.75,SSE,158,0.0,0.0,42,0.00,,,0.00,WUHU216HW,2013-03-28 21:22:00,
2013-03-28 16:27:00,58.4,35.3,28.75,SSE,158,0.0,0.0,42,0.00,,,0.00,WUHU216HW,2013-03-28 21:27:00,
2013-03-28 16:32:00,58.2,35.2,28.75,SSE,158,0.0,0.0,42,0.00,,,0.00,WUHU216HW,2013-03-28 21:32:00,
2013-03-28 16:37:00,58.1,35.0,28.75,SSE,158,0.0,0.0,42,0.00,,,0.00,WUHU216HW,2013-03-28 21:37:00,
2013-03-28 16:42:00,58.2,35.2,28.74,SSE,158,0.0,0.0,42,0.00,,,0.00,WUHU216HW,2013-03-28 21:42:00,
2013-03-28 16:48:00,58.6,34.9,28.74,SE,135,0.0,0.0,41,0.00,,,0.00,WUHU216HW,2013-03-28 21:48:00,
2013-03-28 16:53:00,58.6,34.9,28.74,ESE,113,0.0,0.0,41,0.00,,,0.00,WUHU216HW,2013-03-28 21:53:00,
2013-03-28 16:58:00,58.2,34.6,28.74,ENE,68,0.0,0.0,41,0.00,,,0.00,WUHU216HW,2013-03-28 21:58:00,
2013-03-28 17:03:00,58.2,34.6,28.74,SE,135,0.0,0.0,41,0.00,,,0.00,WUHU216HW,2013-03-28 22:03:00,
2013-03-28 17:08:00,58.2,34.6,28.74,ESE,113,0.0,0.0,41,0.00,,,0.00,WUHU216HW,2013-03-28 22:08:00,
2013-03-28 17:13:00,58.2,34.6,28.74,ESE,113,0.0,0.0,41,0.00,,,0.00,WUHU216HW,2013-03-28 22:13:00,
2013-03-28 17:18:00,58.1,34.4,28.74,SE,135,0.0,0.0,41,0.00,,,0.00,WUHU216HW,2013-03-28 22:18:00,
2013-03-28 17:23:00,57.9,34.3,28.74,SE,135,0.0,6.7,41,0.00,,,0.00,WUHU216HW,2013-03-28 22:23:00,
2013-03-28 17:28:00,57.9,34.3,28.74,SE,135,0.0,6.7,41,0.00,,,0.00,WUHU216HW,2013-03-28 22:28:00,
2013-03-28 17:33:00,57.7,34.1,28.74,ENE,68,0.0,0.0,41,0.00,,,0.00,WUHU216HW,2013-03-28 22:33:00,
2013-03-28 17:38:00,57.7,34.7,28.74,SE,135,0.0,0.0,42,0.00,,,0.00,WUHU216HW,2013-03-28 22:38:00,
2013-03-28 17:43:00,57.7,34.7,28.74,SE,135,0.0,0.0,42,0.00,,,0.00,WUHU216HW,2013-03-28 22:43:00,
2013-03-28 17:48:00,57.5,34.5,28.74,ESE,113,0.0,0.0,42,0.00,,,0.00,WUHU216HW,2013-03-28 22:48:00,
2013-03-28 17:53:00,57.5,34.5,28.74,SE,135,0.0,0.0,42,0.00,,,0.00,WUHU216HW,2013-03-28 22:53:00,
2013-03-28 17:58:00,57.5,34.5,28.74,SE,135,0.0,0.0,42,0.00,,,0.00,WUHU216HW,2013-03-28 22:58:00,
2013-03-28 18:03:00,57.5,34.5,28.74,SE,135,0.0,0.0,42,0.00,,,0.00,WUHU216HW,2013-03-28 23:03:00,
2013-03-28 18:09:00,57.5,34.5,28.74,SE,135,0.0,0.0,42,0.00,,,0.00,WUHU216HW,2013-03-28 23:09:00,
2013-03-28 18:14:00,57.3,34.3,28.74,SE,135,0.0,0.0,42,0.00,,,0.00,WUHU216HW,2013-03-28 23:14:00,
2013-03-28 18:19:00,57.3,34.3,28.74,ENE,68,0.0,0.0,42,0.00,,,0.00,WUHU216HW,2013-03-28 23:19:00,
2013-03-28 18:24:00,57.2,33.6,28.75,ESE,113,0.0,0.0,41,0.00,,,0.00,WUHU216HW,2013-03-28 23:24:00,
2013-03-28 18:29:00,57.0,33.4,28.74,ENE,68,0.0,0.0,41,0.00,,,0.00,WUHU216HW,2013-03-28 23:29:00,
2013-03-28 18:34:00,57.0,34.0,28.75,SE,135,0.0,0.0,42,0.00,,,0.00,WUHU216HW,2013-03-28 23:34:00,
2013-03-28 18:39:00,56.8,33.8,28.75,SE,135,0.0,0.0,42,0.00,,,0.00,WUHU216HW,2013-03-28 23:39:00,
2013-03-28 18:44:00,56.8,33.8,28.75,SE,135,0.0,0.0,42,0.00,,,0.00,WUHU216HW,2013-03-28 23:44:00,
2013-03-28 18:49:00,56.4,34.1,28.75,SE,135,0.0,0.0,43,0.00,,,0.00,WUHU216HW,2013-03-28 23:49:00,
2013-03-28 18:54:00,56.3,33.9,28.76,SE,135,0.0,0.0,43,0.00,,,0.00,WUHU216HW,2013-03-28 23:54:00,
2013-03-28 18:59:00,56.1,33.8,28.76,SE,135,0.0,0.0,43,0.00,,,0.00,WUHU216HW,2013-03-28 23:59:00,
2013-03-28 19:04:00,55.7,34.0,28.76,SE,135,0.0,0.0,44,0.00,,,0.00,WUHU216HW,2013-03-29 00:04:00,
2013-03-28 19:09:00,55.4,33.6,28.76,SE,135,0.0,0.0,44,0.00,,,0.00,WUHU216HW,2013-03-29 00:09:00,
2013-03-28 19:14:00,55.0,33.3,28.76,SE,135,0.0,0.0,44,0.00,,,0.00,WUHU216HW,2013-03-29 00:14:00,
2013-03-28 19:20:00,54.6,33.6,28.76,SE,135,0.0,0.0,45,0.00,,,0.00,WUHU216HW,2013-03-29 00:20:00,
2013-03-28 19:25:00,54.3,34.3,28.76,SE,135,0.0,0.0,47,0.00,,,0.00,WUHU216HW,2013-03-29 00:25:00,
2013-03-28 19:30:00,54.1,34.2,28.76,SE,135,0.0,0.0,47,0.00,,,0.00,WUHU216HW,2013-03-29 00:30:00,
2013-03-28 19:35:00,53.7,33.3,28.77,SE,135,0.0,0.0,46,0.00,,,0.00,WUHU216HW,2013-03-29 00:35:00,
2013-03-28 19:40:00,53.7,33.3,28.77,SE,135,0.0,0.0,46,0.00,,,0.00,WUHU216HW,2013-03-29 00:40:00,
2013-03-28 19:45:00,53.4,33.0,28.77,NE,45,0.0,0.0,46,0.00,,,0.00,WUHU216HW,2013-03-29 00:45:00,
2013-03-28 19:50:00,52.8,32.5,28.78,NE,45,0.0,0.0,46,0.00,,,0.00,WUHU216HW,2013-03-29 00:50:00,
2013-03-28 19:55:00,52.1,31.8,28.78,NE,45,0.0,0.0,46,0.00,,,0.00,WUHU216HW,2013-03-29 00:55:00,
2013-03-28 20:00:00,51.6,31.9,28.78,NE,45,0.0,0.0,47,0.00,,,0.00,WUHU216HW,2013-03-29 01:00:00,
2013-03-28 20:05:00,51.4,31.2,28.78,NE,45,0.0,0.0,46,0.00,,,0.00,WUHU216HW,2013-03-29 01:05:00,
2013-03-28 20:10:00,51.4,31.2,28.78,NE,45,0.0,0.0,46,0.00,,,0.00,WUHU216HW,2013-03-29 01:10:00,
2013-03-28 20:15:00,51.0,31.4,28.78,NE,45,0.0,0.0,47,0.00,,,0.00,WUHU216HW,2013-03-29 01:15:00,
2013-03-28 20:20:00,50.1,31.2,28.78,NE,45,0.0,0.0,48,0.00,,,0.00,WUHU216HW,2013-03-29 01:20:00,
2013-03-28 20:25:00,49.8,30.8,28.78,NE,45,0.0,0.0,48,0.00,,,0.00,WUHU216HW,2013-03-29 01:25:00,
2013-03-28 20:31:00,49.8,30.8,28.78,NE,45,0.0,0.0,48,0.00,,,0.00,WUHU216HW,2013-03-29 01:31:00,
2013-03-28 20:36:00,49.6,30.7,28.78,NE,45,0.0,0.0,48,0.00,,,0.00,WUHU216HW,2013-03-29 01:36:00,
2013-03-28 20:41:00,49.6,30.7,28.78,NE,45,0.0,0.0,48,0.00,,,0.00,WUHU216HW,2013-03-29 01:41:00,
2013-03-28 20:46:00,49.8,30.8,28.78,NE,45,0.0,0.0,48,0.00,,,0.00,WUHU216HW,2013-03-29 01:46:00,
2013-03-28 20:51:00,50.0,31.0,28.78,NE,45,0.0,0.0,48,0.00,,,0.00,WUHU216HW,2013-03-29 01:51:00,
2013-03-28 20:56:00,50.1,31.2,28.78,NE,45,0.0,0.0,48,0.00,,,0.00,WUHU216HW,2013-03-29 01:56:00,
2013-03-28 21:01:00,50.0,31.0,28.78,NE,45,0.0,0.0,48,0.00,,,0.00,WUHU216HW,2013-03-29 02:01:00,
2013-03-28 21:07:00,49.8,30.8,28.78,NE,45,0.0,0.0,48,0.00,,,0.00,WUHU216HW,2013-03-29 02:07:00,
2013-03-28 21:12:00,49.8,30.8,28.79,NE,45,0.0,0.0,48,0.00,,,0.00,WUHU216HW,2013-03-29 02:12:00,
2013-03-28 21:17:00,49.6,30.7,28.78,NE,45,0.0,0.0,48,0.00,,,0.00,WUHU216HW,2013-03-29 02:17:00,
2013-03-28 21:22:00,49.6,30.7,28.78,NE,45,0.0,0.0,48,0.00,,,0.00,WUHU216HW,2013-03-29 02:22:00,
2013-03-28 21:27:00,49.2,30.7,28.79,NE,45,0.0,0.0,48,0.00,,,0.00,WUHU216HW,2013-03-29 02:27:00,
2013-03-28 21:32:00,48.9,30.0,28.79,NE,45,0.0,0.0,48,0.00,,,0.00,WUHU216HW,2013-03-29 02:32:00,
2013-03-28 21:37:00,48.5,29.6,28.79,NE,45,0.0,0.0,48,0.00,,,0.00,WUHU216HW,2013-03-29 02:37:00,
2013-03-28 21:42:00,48.0,29.8,28.79,NE,45,0.0,0.0,49,0.00,,,0.00,WUHU216HW,2013-03-29 02:42:00,
2013-03-28 21:47:00,47.8,29.5,28.79,NE,45,0.0,0.0,49,0.00,,,0.00,WUHU216HW,2013-03-29 02:47:00,
2013-03-28 21:52:00,47.8,29.5,28.80,NE,45,0.0,0.0,49,0.00,,,0.00,WUHU216HW,2013-03-29 02:52:00,
2013-03-28 21:57:00,47.6,29.3,28.80,NE,45,0.0,0.0,49,0.00,,,0.00,WUHU216HW,2013-03-29 02:57:00,
2013-03-28 22:02:00,47.4,29.1,28.80,NE,45,0.0,0.0,49,0.00,,,0.00,WUHU216HW,2013-03-29 03:02:00,
2013-03-28 22:08:00,47.1,29.4,28.80,NE,45,0.0,0.0,50,0.00,,,0.00,WUHU216HW,2013-03-29 03:08:00,
2013-03-28 22:13:00,46.9,29.2,28.79,NE,45,0.0,0.0,50,0.00,,,0.00,WUHU216HW,2013-03-29 03:13:00,
2013-03-28 22:18:00,46.5,28.9,28.80,NE,45,0.0,0.0,50,0.00,,,0.00,WUHU216HW,2013-03-29 03:18:00,
2013-03-28 22:23:00,46.2,29.0,28.79,NE,45,0.0,0.0,51,0.00,,,0.00,WUHU216HW,2013-03-29 03:23:00,
2013-03-28 22:28:00,46.0,28.8,28.80,NE,45,0.0,0.0,51,0.00,,,0.00,WUHU216HW,2013-03-29 03:28:00,
2013-03-28 22:33:00,45.6,28.5,28.80,NE,45,0.0,0.0,51,0.00,,,0.00,WUHU216HW,2013-03-29 03:33:00,
2013-03-28 22:38:00,45.5,28.8,28.80,NE,45,0.0,0.0,52,0.00,,,0.00,WUHU216HW,2013-03-29 03:38:00,
2013-03-28 22:43:00,45.1,28.5,28.80,NE,45,0.0,0.0,52,0.00,,,0.00,WUHU216HW,2013-03-29 03:43:00,
2013-03-28 22:48:00,44.9,28.3,28.80,NE,45,0.0,0.0,52,0.00,,,0.00,WUHU216HW,2013-03-29 03:48:00,
2013-03-28 22:53:00,44.6,28.4,28.80,NE,45,0.0,0.0,53,0.00,,,0.00,WUHU216HW,2013-03-29 03:53:00,
2013-03-28 22:58:00,44.4,28.3,28.79,NE,45,0.0,0.0,53,0.00,,,0.00,WUHU216HW,2013-03-29 03:58:00,
2013-03-28 23:00:00,44.4,28.3,28.79,NE,45,0.0,0.0,53,0.00,,,0.00,WUHU216HW,2013-03-29 04:00:00,
2013-03-28 23:01:00,44.4,28.1,28.79,NE,45,0.0,0.0,53,0.00,,,0.00,WUHU216HW,2013-03-29 04:01:00,
2013-03-28 23:06:00,44.0,27.9,28.79,NE,45,0.0,0.0,53,0.00,,,0.00,WUHU216HW,2013-03-29 04:06:00,
2013-03-28 23:11:00,43.8,27.8,28.80,NE,45,0.0,0.0,53,0.00,,,0.00,WUHU216HW,2013-03-29 04:11:00,
2013-03-28 23:16:00,43.7,28.0,28.79,NE,45,0.0,0.0,54,0.00,,,0.00,WUHU216HW,2013-03-29 04:16:00,
2013-03-28 23:21:00,43.3,27.7,28.79,NE,45,0.0,0.0,54,0.00,,,0.00,WUHU216HW,2013-03-29 04:21:00,
2013-03-28 23:26:00,43.1,27.5,28.79,NE,45,0.0,0.0,54,0.00,,,0.00,WUHU216HW,2013-03-29 04:26:00,
2013-03-28 23:32:00,42.6,27.5,28.79,NE,45,0.0,0.0,55,0.00,,,0.00,WUHU216HW,2013-03-29 04:32:00,
2013-03-28 23:37:00,42.6,27.5,28.79,NE,45,0.0,0.0,55,0.00,,,0.00,WUHU216HW,2013-03-29 04:37:00,
2013-03-28 23:42:00,42.4,27.7,28.79,NE,45,0.0,0.0,56,0.00,,,0.00,WUHU216HW,2013-03-29 04:42:00,
2013-03-28 23:47:00,42.0,27.4,28.79,NE,45,0.0,0.0,56,0.00,,,0.00,WUHU216HW,2013-03-29 04:47:00,
2013-03-28 23:52:00,41.9,27.2,28.79,NE,45,0.0,0.0,56,0.00,,,0.00,WUHU216HW,2013-03-29 04:52:00,
2013-03-28 23:57:00,41.7,27.5,28.79,NE,45,0.0,0.0,57,0.00,,,0.00,WUHU216HW,2013-03-29 04:57:00,